Location: Bushey
(51.6333°N, 0.3667°W)
Time: 23:50:49
(UTC+00:00)

Cosmos 2360 Rocket - Pass Details

Date: 03 March 2021
Orbit: 832 x 846 km, 71.0° (Epoch: 11 April)

Event Time Altitude Azimuth Distance (km) Brightness Sun altitude
Rises 18:37:47 0° 179° (S) 3,377 5.3 -8.9°
Reaches altitude 10° 18:40:23 10° 171° (S) 2,450 4.5 -9.3°
Maximum altitude 18:45:26 35° 107° (ESE) 1,328 2.8 -10.1°
Drops below altitude 10° 18:50:31 10° 43° (NE) 2,474 4.3 -10.9°
Sets 18:53:09 0° 35° (NE) 3,415 5.0 -11.3°
